Location: Doschendorf
(50.0069°N, 11.0602°E)
Time: 06:33:25
(UTC+00:00)

NOAA 12 - Pass Details

Date: 27 February 2020
Orbit: 795 x 815 km, 98.5° (Epoch: 07 April)

Event Time Altitude Azimuth Distance (km) Brightness Sun altitude
Rises 17:31:40 0° 185° (S) 3,314 7.4 -6.9°
Reaches altitude 10° 17:34:08 10° 193° (SSW) 2,390 6.8 -7.3°
Maximum altitude 17:39:06 41° 263° (W) 1,174 5.7 -8.1°
Drops below altitude 10° 17:44:08 10° 333° (NNW) 2,416 6.9 -8.9°
Sets 17:46:38 0° 341° (NNW) 3,354 7.6 -9.3°
